Lobo

Go HERE for most recent data if this page is not up to date.

Jump to table bottom
Date/Time Temp deg F RH % 24 Hr Snow (in) Snow Depth (in) H2O (in)
02/25 01:00 7.4 85 2.1 67.6 0.00
02/25 00:00 7.9 84 1.9 66.9 0.05
02/24 23:00 8.4 84 1.8 66.8 0.00
02/24 22:00 9.0 84 1.5 66.7 0.00
02/24 21:00 9.2 85 0.9 66.3 0.00
02/24 20:00 9.4 84 0.6 66.3 0.00
02/24 19:00 9.9 83 0.3 66.4 0.00
02/24 18:00 10.6 82 -0.0 65.4 0.00
02/24 17:00 11.6 80 -0.0 65.5 0.00
02/24 16:00 11.8 79 -0.0 65.7 0.01
02/24 15:00 12.5 77 5.2 65.8 0.02
02/24 14:00 12.6 77 5.0 65.6 0.08
02/24 13:00 12.1 73 4.5 65.5 0.02
02/24 12:00 11.3 80 4.3 65.0 0.00
02/24 11:00 11.2 73 4.0 65.0 0.05
02/24 10:00 10.0 81 4.0 64.5 0.00
02/24 09:00 9.3 83 3.8 64.0 0.00
02/24 08:00 8.8 84 3.6 63.6 0.00
02/24 07:00 8.8 82 3.5 64.4 0.00
02/24 06:00 9.1 83 3.1 64.1 0.00
02/24 05:00 9.1 85 3.0 64.0 0.00
02/24 04:00 9.6 84 3.0 64.2 0.00
02/24 03:00 10.1 84 3.0 64.3 0.00
02/24 02:00 10.7 85 3.1 64.3 0.00
02/24 01:00 11.5 88 2.9 64.2 0.01
02/24 00:00 12.1 88 3.1 64.5 0.11
.